This is the latest recevied weather packets stored in our database for station/object N2WH. If no packets are shown the sender has not sent any weather packets the latest 10 day(s).
| Time | Temp. | Humidity | Pressure | Rain* | Wind** | Luminosity | Snow |
|---|---|---|---|---|---|---|---|
| 1777580218 | 13.89° C | 69% | 1007.8 hPa | 0 mm | - | 68 W/m² | - |
| 1777579916 | 14.44° C | 71% | 1007.6 hPa | 0 mm | - | 79 W/m² | - |
| 1777579611 | 14.44° C | 69% | 1007.4 hPa | 0 mm | - | 97 W/m² | - |
| 1777579309 | 14.44° C | 69% | 1007.6 hPa | 0 mm | - | 129 W/m² | - |
| 1777579006 | 14.44° C | 70% | 1007.6 hPa | 0 mm | - | 152 W/m² | - |
| 1777578701 | 14.44° C | 70% | 1007.3 hPa | 0 mm | - | 178 W/m² | - |
| 1777578400 | 13.89° C | 72% | 1007.4 hPa | 0 mm | - | 170 W/m² | - |
| 1777578096 | 13.89° C | 73% | 1007.5 hPa | 0 mm | - | 120 W/m² | - |
| 1777577792 | 13.89° C | 73% | 1007.7 hPa | 0 mm | - | 104 W/m² | - |
| 1777577488 | 13.89° C | 74% | 1007.7 hPa | 0 mm | - | 110 W/m² | - |
| 1777577185 | 13.89° C | 74% | 1007.7 hPa | 0 mm | - | 127 W/m² | - |
| 1777576881 | 13.33° C | 75% | 1007.7 hPa | 0 mm | - | 108 W/m² | - |
| 1777576581 | 13.33° C | 75% | 1007.8 hPa | 0 mm | - | 74 W/m² | - |
| 1777576277 | 13.33° C | 74% | 1007.9 hPa | 0 mm | - | 60 W/m² | - |
| 1777575974 | 13.89° C | 75% | 1007.8 hPa | 0 mm | - | 52 W/m² | - |
| 1777575670 | 13.89° C | 74% | 1007.8 hPa | 0 mm | - | 61 W/m² | - |
| 1777575365 | 14.44° C | 75% | 1007.6 hPa | 0 mm | - | 65 W/m² | - |
| 1777575062 | 14.44° C | 74% | 1007.9 hPa | 0 mm | - | 78 W/m² | - |
| 1777574757 | 15° C | 75% | 1007.7 hPa | 0 mm | - | 157 W/m² | - |
| 1777574456 | 14.44° C | 72% | 1007.7 hPa | 0 mm | - | 232 W/m² | - |
| 1777574156 | 14.44° C | 76% | 1007.6 hPa | 0 mm | - | 250 W/m² | - |
| 1777573852 | 13.89° C | 76% | 1007.8 hPa | 0 mm | - | 244 W/m² | - |
| 1777573547 | 13.89° C | 76% | 1007.7 hPa | 0 mm | - | 202 W/m² | - |
| 1777573244 | 13.89° C | 77% | 1007.8 hPa | 0 mm | - | 181 W/m² | - |
| 1777572940 | 13.89° C | 78% | 1007.7 hPa | 0 mm | - | 157 W/m² | - |
* Rain latest hour (hover to see other rain measurements)
** Current wind speed in m/s (hover to see current wind gust speed)